Theta_e
326 326 325 324 324 324 324 323 323 323 321 318 314 313 313 314 314 315 315 315 315 314 314 313 313 313 316 320 318 316 314 315 316 319 319 321 321 321 319 319 320 322 322 320 320 318 318
326 327 326 325 325 325 324 323 323 323 323 322 320 317 311 310 312 314 314 314 315 314 314 313 313 313 318 318 316 316 315 316 317 318 318 319 319 320 318 318 320 320 318 317 317 317 317
328 327 327 328 327 327 326 326 324 323 323 323 322 320 316 309 308 312 314 314 314 314 313 313 313 314 316 317 315 315 315 316 316 317 318 316 317 320 319 319 318 318 318 318 319 319 320
332 329 330 330 329 328 328 329 329 326 323 322 322 322 318 312 308 309 313 314 314 314 313 313 313 316 316 314 315 314 316 317 316 316 316 316 317 319 320 318 318 319 320 324 321 319 319
328 329 329 330 330 330 330 330 330 329 327 323 322 321 321 315 311 308 311 315 314 313 313 313 316 316 316 313 315 315 316 317 317 316 316 316 318 319 319 322 323 321 322 320 319 318 319
322 323 327 327 328 330 331 331 330 330 329 327 322 321 321 318 314 311 310 315 313 313 314 316 315 316 316 316 315 315 315 316 316 317 319 319 320 322 320 321 323 322 321 319 318 318 317
320 321 321 324 326 326 327 327 326 326 326 328 325 321 321 320 316 312 314 318 317 317 315 317 316 316 314 314 313 315 315 315 316 316 318 320 320 322 322 319 317 316 316 317 318 317 316
314 317 320 320 321 323 326 326 325 324 325 326 326 322 320 320 318 312 317 318 317 316 320 318 316 314 314 314 315 315 314 316 316 317 317 318 319 320 317 317 317 318 318 318 318 316 315
311 313 314 317 319 320 321 325 325 325 324 324 325 324 320 320 313 317 317 318 316 317 320 319 318 318 315 314 315 316 315 316 316 316 317 317 320 317 317 318 319 319 318 317 317 317 318
310 310 311 312 314 317 320 320 324 325 324 324 323 324 320 319 317 317 319 315 315 316 320 319 316 317 315 315 315 314 315 316 316 316 316 317 317 317 317 319 318 319 316 315 317 318 322
308 310 309 310 311 312 313 317 319 321 324 324 323 324 321 319 317 318 316 316 315 314 318 316 316 313 315 315 315 314 313 315 316 316 317 318 317 317 318 318 317 318 316 316 317 319 322
308 308 311 309 307 308 311 313 315 317 320 326 324 323 321 319 318 315 316 317 315 317 318 316 315 315 315 315 314 314 314 314 315 316 316 317 314 316 317 314 314 315 317 319 320 323 325
308 308 308 308 307 306 307 310 312 314 316 322 324 324 321 318 319 315 316 317 318 318 315 316 316 315 316 316 315 315 315 315 315 315 317 316 316 315 314 316 315 316 319 324 330 329 326
309 308 305 306 306 306 306 307 309 312 314 315 322 324 321 319 318 315 318 320 319 318 317 315 315 315 317 316 316 315 316 317 316 317 318 318 318 316 315 317 319 317 319 322 330 329 327
308 308 307 306 305 305 306 305 306 309 313 315 317 321 319 320 318 315 320 319 316 317 317 316 315 316 317 316 316 316 316 317 317 316 316 317 317 313 312 314 316 318 318 319 322 323 323
307 306 307 307 306 306 306 306 305 307 311 315 318 316 319 319 317 315 320 318 317 316 315 316 316 317 319 317 316 317 317 317 317 316 316 317 317 313 311 311 313 315 317 318 318 328 331
308 308 308 307 306 306 305 306 306 305 310 316 316 318 316 317 317 317 315 316 316 315 314 315 316 317 318 318 317 317 318 317 317 317 316 316 316 315 312 313 316 314 316 317 320 324 331
308 308 308 307 306 306 306 305 306 305 309 314 315 320 311 315 322 319 320 313 314 316 316 316 315 317 317 317 318 318 318 317 315 316 315 316 317 317 317 314 314 315 316 318 321 326 323
307 307 307 307 306 305 304 306 305 306 308 313 316 316 308 308 320 322 318 318 314 316 316 316 316 317 317 317 318 318 318 316 314 315 316 316 316 317 317 316 313 313 316 317 318 322 329
306 306 307 307 306 305 306 305 305 305 306 311 314 318 309 308 312 314 323 318 316 315 316 316 316 316 316 316 317 318 317 316 314 314 312 316 317 317 319 321 319 315 315 315 317 321 320
305 305 306 306 306 306 305 305 303 304 305 308 312 316 312 314 312 314 316 319 318 316 317 316 316 316 316 316 316 317 317 316 314 316 313 316 316 317 318 317 316 318 318 316 316 318 319
304 304 305 305 305 305 305 305 305 304 304 307 311 313 312 312 312 316 317 321 321 317 316 319 317 316 315 316 316 317 317 317 318 315 314 315 317 317 317 317 316 316 316 317 316 316 317
303 304 304 304 304 304 304 304 304 304 304 306 306 308 312 314 314 316 316 319 320 318 317 317 319 318 318 316 315 316 317 317 318 318 316 317 316 317 318 317 317 318 318 317 318 316 317
302 303 304 304 304 303 304 304 303 304 304 306 306 308 311 312 314 316 316 316 317 317 320 318 317 318 318 317 316 315 315 316 316 316 317 317 318 319 319 319 320 318 317 318 318 318 318
301 302 303 303 303 303 303 303 303 303 303 304 305 306 307 309 312 313 315 316 317 317 318 318 317 317 317 318 318 317 317 315 316 315 316 317 318 326 322 321 320 319 317 318 319 320 319
300 301 302 302 302 302 302 302 303 303 303 303 305 305 306 306 306 308 310 312 317 318 318 317 314 312 312 315 316 318 318 315 315 314 316 317 318 320 323 324 322 321 317 320 317 320 319
300 301 301 302 302 302 302 302 301 302 302 303 304 305 305 306 305 307 311 312 312 316 316 317 316 315 312 316 320 318 319 316 316 316 315 316 319 321 322 324 320 318 317 318 319 322 321
300 301 301 301 301 301 301 301 301 302 301 303 303 304 304 306 305 304 306 308 308 310 315 315 317 317 313 316 319 320 321 321 317 316 317 317 320 322 321 323 323 318 316 319 320 323 320
300 301 301 301 301 301 301 301 301 301 301 302 303 303 304 305 305 304 304 304 306 306 309 310 316 315 315 316 317 319 322 321 321 319 317 318 317 320 319 319 319 319 319 318 320 321 322
Wind_Speed
5 2 3 5 7 7 9 12 13 14 15 14 14 15 16 16 16 15 14 13 13 13 13 13 12 11 7 8 4 2 2 4 4 6 5 6 6 2 5 3 4 4 3 1 3 2 3
10 8 6 6 6 7 6 7 8 11 14 16 17 17 17 17 18 16 15 14 14 13 13 12 9 9 7 12 3 1 2 2 3 5 3 5 4 3 1 0 4 2 2 3 4 4 3
13 11 11 11 11 10 10 10 9 10 12 15 18 19 20 18 18 18 16 15 14 14 13 10 6 5 8 9 0 1 1 1 2 4 3 3 3 6 0 3 2 2 5 5 6 5 3
11 12 15 14 15 13 12 11 11 11 12 14 17 20 21 20 19 19 17 16 15 15 10 6 5 5 7 1 3 4 4 2 1 1 2 2 1 0 5 1 4 5 6 8 7 5 4
5 5 8 15 14 15 15 13 13 12 12 13 15 20 23 21 21 20 17 16 16 10 6 4 4 6 8 0 5 6 5 5 2 1 0 1 4 2 4 6 6 7 2 3 6 5 1
7 7 6 7 8 12 13 13 12 13 13 13 13 17 22 24 22 21 16 14 8 5 3 4 6 6 7 1 2 4 4 5 5 3 4 5 5 7 7 7 4 2 4 2 4 5 7
8 9 7 8 8 8 10 11 13 14 14 13 14 14 20 24 26 19 16 6 5 6 9 7 1 4 0 2 3 6 6 6 6 7 9 4 7 7 3 4 5 5 5 6 3 3 4
10 9 9 9 9 9 8 9 11 11 15 14 13 15 18 22 26 15 6 5 4 4 8 14 15 7 5 2 4 7 6 7 7 10 3 6 9 5 1 0 3 5 7 6 3 0 4
12 12 11 10 10 10 9 9 11 12 11 14 14 15 15 22 20 7 4 4 4 4 6 5 9 12 11 8 7 9 9 5 8 10 9 12 5 3 3 4 6 6 7 7 6 9 12
11 13 13 12 11 11 11 10 10 12 11 11 15 13 15 21 7 8 0 5 6 2 5 9 6 4 7 5 6 2 7 4 5 8 6 9 6 5 6 7 5 9 4 3 5 7 3
12 12 12 13 13 12 13 12 12 11 13 12 13 13 13 13 12 5 3 8 5 3 6 6 5 3 4 12 6 5 3 5 8 6 5 3 5 8 8 4 3 4 1 3 5 8 9
15 12 11 12 12 12 13 13 13 13 13 13 12 13 11 7 8 7 8 9 3 5 8 4 5 7 9 12 4 4 7 3 3 4 8 5 1 3 3 3 1 3 4 6 5 4 6
14 13 13 14 14 14 13 13 13 14 14 13 12 14 12 6 6 8 9 5 5 7 3 5 5 6 12 10 11 8 11 12 10 6 12 11 11 4 4 5 4 6 6 3 4 5 3
15 16 17 16 15 14 13 13 13 13 14 13 13 15 12 12 7 6 7 7 12 2 12 4 2 7 9 8 10 11 9 13 17 12 7 10 7 14 12 9 5 13 8 6 5 3 2
17 16 16 16 17 16 14 13 12 12 12 14 14 15 8 9 11 5 6 13 6 13 1 5 7 8 10 8 4 11 16 16 17 16 8 7 4 3 2 2 4 7 7 3 5 3 4
19 20 18 16 16 16 15 14 12 12 11 11 3 6 8 10 10 9 8 21 15 1 1 8 9 12 9 12 9 9 11 8 19 14 20 3 5 3 5 3 7 6 4 4 5 4 5
21 20 19 19 17 17 17 16 13 11 9 7 4 3 7 13 13 7 14 21 22 5 4 7 9 6 9 8 14 9 4 4 11 9 17 10 8 5 5 11 12 7 6 7 4 4 3
21 22 22 20 20 18 16 15 14 11 7 6 3 3 7 16 8 5 13 19 13 12 11 7 6 8 10 9 10 12 9 9 4 9 9 18 6 11 10 4 4 10 13 16 5 5 4
23 23 23 22 20 21 20 17 14 10 8 4 3 2 4 2 6 12 10 18 24 20 18 12 9 8 6 8 7 14 6 5 8 12 7 13 8 8 6 3 4 8 14 14 18 3 10
23 24 24 24 22 21 20 18 16 13 10 9 2 3 1 2 4 5 18 18 22 18 22 19 15 16 9 11 12 4 7 4 8 10 4 4 11 13 11 4 3 7 15 21 18 9 10
24 24 24 24 24 24 23 20 20 17 14 10 5 3 5 4 6 8 10 8 20 21 19 14 19 21 17 18 17 16 12 5 7 7 4 7 9 15 20 19 5 10 10 19 23 25 14
25 25 25 25 25 26 26 24 20 20 17 15 3 5 2 1 7 21 19 23 25 19 26 22 23 17 24 23 20 15 18 14 11 12 11 8 9 10 18 16 17 21 20 16 21 24 24
28 27 27 26 26 27 27 26 24 22 21 11 15 18 3 4 6 8 16 21 23 20 25 28 22 20 24 22 23 22 18 11 10 10 16 10 9 10 16 16 11 17 26 25 24 19 21
29 28 26 26 27 27 27 27 28 27 27 24 20 11 7 15 9 11 12 15 19 25 24 18 26 27 22 17 21 17 17 19 19 17 12 9 14 10 9 6 13 11 1 17 28 24 25
30 30 29 27 26 28 28 28 28 28 27 28 24 13 4 8 12 17 22 24 19 21 24 22 25 20 18 17 16 21 17 23 27 24 23 18 14 5 8 13 19 21 5 5 11 20 24
32 31 31 30 30 29 30 30 29 29 28 28 25 24 9 4 10 13 14 14 17 15 21 25 18 18 11 8 10 21 13 17 11 12 24 20 19 14 10 10 12 3 6 17 8 15 15
31 31 32 32 31 30 29 30 30 31 31 29 23 25 15 8 6 10 8 9 5 6 6 12 17 16 9 10 12 14 19 16 18 21 7 14 16 21 17 18 15 15 9 11 9 2 6
32 31 32 33 33 32 30 30 31 31 31 27 27 27 24 6 12 17 16 19 12 8 9 6 8 14 5 11 13 12 14 18 19 23 16 15 12 11 16 19 25 4 11 16 5 1 2
33 32 32 33 35 34 32 32 32 33 31 28 22 25 27 16 4 19 33 37 29 24 7 7 12 12 11 8 8 9 13 11 21 18 22 17 14 14 12 12 13 10 15 16 18 11 7
Wind_Direction
287 295 2 359 4 2 14 20 21 18 12 6 356 343 334 330 327 325 326 327 327 328 328 327 323 325 322 239 266 58 328 303 283 278 293 294 267 240 226 197 208 246 150 170 130 191 247
272 273 275 293 295 320 334 343 357 7 8 4 358 352 341 329 324 319 318 320 320 319 319 319 318 322 273 265 60 95 330 290 299 280 316 292 330 324 71 230 270 93 193 163 188 200 225
262 266 273 280 283 289 303 316 329 337 350 357 357 352 347 337 327 319 312 313 314 312 310 305 304 317 267 271 199 237 264 297 331 302 290 350 316 267 307 174 181 185 216 196 211 213 244
262 259 273 277 271 275 284 300 311 321 330 340 349 350 345 341 333 323 310 309 309 308 298 285 284 276 267 203 231 232 219 240 323 20 75 351 313 271 295 109 206 229 234 215 144 195 150
357 312 307 304 252 271 275 284 294 300 315 325 338 346 344 342 338 326 311 309 308 298 275 265 271 247 263 331 214 212 223 256 216 234 94 231 263 283 192 232 204 204 283 220 163 204 247
343 342 330 312 299 295 269 284 292 302 303 309 324 340 342 340 337 330 317 311 300 276 259 244 257 258 215 231 141 201 204 212 243 234 221 229 235 243 223 229 342 22 264 184 280 139 231
329 336 330 335 313 302 301 299 297 298 301 301 312 331 336 339 336 334 337 327 225 198 215 245 332 250 196 142 176 212 193 206 227 236 251 195 259 232 23 7 338 322 297 283 289 94 287
323 309 318 329 316 312 302 296 305 298 297 303 301 316 328 336 335 331 358 339 50 342 298 244 240 257 236 294 219 205 187 219 210 241 210 228 241 47 57 337 295 289 292 289 269 17 272
313 318 312 303 319 316 314 306 292 298 298 304 303 308 324 333 339 1 355 83 341 323 261 227 226 229 213 207 232 195 195 220 244 243 234 264 54 128 221 223 259 250 288 321 308 316 248
313 310 307 308 302 307 312 315 308 285 290 297 299 303 317 336 320 334 247 338 330 272 274 183 192 189 182 209 230 149 214 248 220 259 240 261 106 196 228 254 271 285 53 299 301 308 306
312 311 309 300 305 303 300 301 309 306 285 283 288 293 306 337 309 290 327 326 311 238 279 113 151 102 151 188 124 160 181 203 249 212 224 76 189 209 235 266 228 23 14 292 296 288 302
297 300 308 311 303 303 304 299 299 303 304 272 277 281 291 315 297 284 308 315 261 230 248 128 141 177 166 205 166 130 179 223 342 234 240 283 3 243 285 105 263 105 241 240 265 268 250
289 295 296 302 308 305 298 301 298 298 304 302 266 261 260 276 301 308 310 234 221 240 124 154 195 185 200 183 207 203 184 194 207 204 226 210 217 155 193 201 182 217 245 218 213 202 260
281 287 289 289 298 307 303 296 298 296 298 304 283 251 251 245 277 299 269 219 235 300 242 96 210 190 196 184 217 200 212 219 217 248 284 211 192 189 186 232 304 204 248 271 274 226 117
277 279 281 282 292 299 302 303 297 302 297 306 303 232 232 246 231 243 233 219 227 236 211 182 161 199 201 201 266 209 226 230 220 203 222 209 208 111 240 216 270 156 218 12 288 223 268
272 279 277 278 284 289 297 302 303 301 307 312 280 212 231 207 201 206 225 231 223 159 138 207 231 199 210 193 205 199 214 216 226 210 227 284 251 203 135 223 231 263 357 196 215 248 240
270 269 267 273 276 281 288 292 296 297 307 306 234 259 192 185 179 217 224 221 235 177 218 230 245 248 251 178 208 199 255 184 210 208 214 226 237 127 172 208 203 191 223 224 297 262 273
267 265 264 262 272 276 278 279 285 293 294 264 195 243 189 178 196 213 229 220 254 251 200 258 279 269 256 214 213 226 240 228 188 169 200 214 266 237 220 113 294 275 227 219 243 198 248
264 262 263 263 264 275 273 270 271 272 260 198 248 266 206 207 210 218 224 233 237 244 232 228 239 234 224 227 229 215 232 48 168 193 203 176 222 230 213 215 202 227 223 240 235 290 236
266 262 262 259 259 266 264 261 263 257 250 243 283 221 198 241 288 267 223 219 224 229 243 242 250 251 235 238 233 284 229 171 200 221 31 225 251 230 225 45 87 208 214 212 220 224 232
264 262 261 261 260 260 256 258 257 253 242 229 214 254 184 195 230 234 245 226 217 230 228 224 243 240 237 243 239 230 242 184 190 203 219 220 244 240 252 270 227 267 219 211 219 229 239
262 260 259 256 255 258 258 256 252 248 241 232 255 222 168 190 209 221 225 229 238 219 232 221 236 235 234 242 241 236 234 230 233 183 201 217 241 251 264 264 261 251 244 223 225 236 245
263 260 257 255 254 254 252 252 251 245 234 237 239 267 263 196 209 207 222 231 233 233 235 237 245 229 242 241 248 261 267 258 266 188 204 200 223 233 263 258 269 263 239 234 228 221 227
265 262 260 256 255 254 251 251 250 246 235 234 245 259 244 254 238 235 230 235 232 236 240 238 233 246 251 240 264 257 267 266 251 242 225 213 220 234 252 249 247 251 59 224 223 226 228
264 257 255 254 253 253 251 248 248 250 243 236 238 229 259 267 255 252 242 239 238 243 240 246 250 249 268 255 240 249 251 249 238 237 233 231 230 238 226 233 265 268 225 172 200 241 235
262 255 254 253 253 254 254 253 247 246 245 241 239 231 233 253 240 267 285 294 242 231 238 236 238 263 295 284 216 225 224 227 226 230 212 220 231 228 218 233 240 92 340 197 192 268 237
261 256 252 252 252 254 253 253 251 245 247 239 240 231 231 244 226 245 235 277 290 241 238 230 221 224 206 226 232 226 235 240 230 213 171 203 204 221 225 240 259 252 133 143 194 316 14
261 256 253 252 253 255 256 252 249 243 245 238 242 235 228 239 241 241 235 250 261 245 270 223 228 204 157 214 222 221 236 225 240 240 191 182 192 209 228 232 250 253 150 198 203 71 303
261 257 254 252 252 253 252 250 248 244 242 238 244 240 232 238 258 241 236 239 240 245 271 276 293 198 194 199 234 228 241 229 228 235 228 216 207 210 198 227 267 183 225 210 248 271 281